[Date Prev][Date Next][Thread Prev][Thread Next] - [Date Index][Thread Index][Author Index]

2 Line ISS Keps 5-11



ISS
1 25544U 98067A   05130.93692523  .00017292  00000-0  13398-3 0  4430
2 25544 051.6442 091.6629 0008180 105.7110 355.5849 15.71928872369826
----
Via the sarex mailing list at AMSAT.ORG courtesy of AMSAT-NA.
To unsubscribe, send "unsubscribe sarex" to Majordomo@amsat.org



AMSAT Top AMSAT Home